Location: West Sayville
(40.7279°N, 73.0976°W)
Time: 05:39:07
(UTC+00:00)

Cosmos 1812 Rocket - Pass Details

Date: 29 October 2020
Orbit: 605 x 633 km, 82.5° (Epoch: 27 November)

Event Time Altitude Azimuth Distance (km) Brightness Sun altitude
Rises 23:47:44 0° 195° (SSW) 2,890 7.2 -22.5°
Reaches altitude 10° 23:49:59 10° 200° (SSW) 1,984 6.4 -22.9°
Maximum altitude 23:54:19 59° 280° (W) 718 4.1 -23.7°
Drops below altitude 10° 23:58:39 10° 360° (N) 1,982 6.2 -24.6°
Sets 00:00:54 0° 4° (N) 2,887 7.0 -25.0°
